THY981 LTFM-LTAR

Flight info

Callsign THY981
Flight time 1h 4m
Altitude 35000
Route VICEN1D/35L VICEN UT380 ASMAP UL333 LATGA UT363 GURBU UA4 OLPOT
Aircraft B738/M-SDE2E3FGHIRWXY/LB1

Departure

Time 2026-05-05 16:31
Airport İstanbul Airport (LTFM)

Arrival

Time 2026-05-05 17:36
Airport Sivas Nuri Demirağ Airport (LTAR)
Time Latitude Longitude Altitude Speed Heading
2026-05-05 16:06 41.26364 28.73979 333 ft 0 kts 179°
2026-05-05 16:19 41.26376 28.73978 329 ft 2 kts 174°
2026-05-05 16:20 41.26407 28.73966 328 ft 2 kts 139°
2026-05-05 16:20 41.26418 28.73948 329 ft 0 kts 127°
2026-05-05 16:23 41.26416 28.73959 330 ft 5 kts 109°
2026-05-05 16:23 41.26484 28.74025 329 ft 7 kts 359°
2026-05-05 16:24 41.26534 28.74024 330 ft 7 kts 359°
2026-05-05 16:24 41.26582 28.74023 332 ft 7 kts 359°
2026-05-05 16:24 41.26677 28.74020 329 ft 7 kts 358°
2026-05-05 16:25 41.26727 28.74019 329 ft 8 kts 359°
2026-05-05 16:25 41.26883 28.74016 331 ft 13 kts 359°
2026-05-05 16:25 41.26974 28.74014 328 ft 13 kts 359°
2026-05-05 16:26 41.27052 28.73873 333 ft 11 kts 270°
2026-05-05 16:26 41.27049 28.73671 333 ft 11 kts 268°
2026-05-05 16:27 41.27047 28.73575 330 ft 11 kts 268°
2026-05-05 16:27 41.27045 28.73467 331 ft 13 kts 270°
2026-05-05 16:27 41.27044 28.73329 333 ft 17 kts 269°
2026-05-05 16:27 41.27043 28.73170 333 ft 16 kts 269°
2026-05-05 16:28 41.27042 28.73075 333 ft 14 kts 269°
2026-05-05 16:28 41.26958 28.72988 333 ft 13 kts 181°
2026-05-05 16:28 41.26870 28.72989 333 ft 13 kts 179°
2026-05-05 16:28 41.26783 28.72991 333 ft 12 kts 183°
2026-05-05 16:29 41.26733 28.72967 332 ft 12 kts 223°
2026-05-05 16:29 41.26715 28.72868 333 ft 11 kts 266°
2026-05-05 16:29 41.26713 28.72765 329 ft 11 kts 269°
2026-05-05 16:29 41.26712 28.72633 331 ft 11 kts 269°
2026-05-05 16:30 41.26713 28.72568 329 ft 10 kts 281°
2026-05-05 16:30 41.26759 28.72518 331 ft 0 kts 354°
2026-05-05 16:30 41.26781 28.72516 330 ft 17 kts 357°
2026-05-05 16:31 41.27186 28.72508 332 ft 101 kts 359°
2026-05-05 16:31 41.28146 28.72495 397 ft 169 kts
2026-05-05 16:31 41.29421 28.72496 1028 ft 198 kts
2026-05-05 16:31 41.30885 28.72496 1774 ft 220 kts
2026-05-05 16:32 41.32484 28.72509 2564 ft 238 kts
2026-05-05 16:32 41.34205 28.72531 3420 ft 254 kts 360°
2026-05-05 16:32 41.35978 28.72179 4265 ft 268 kts 335°
2026-05-05 16:32 41.37377 28.70752 4780 ft 246 kts 308°
2026-05-05 16:33 41.38048 28.68767 4990 ft 229 kts 288°
2026-05-05 16:33 41.38198 28.66694 5000 ft 220 kts 273°
2026-05-05 16:33 41.38162 28.64711 4976 ft 207 kts 274°
2026-05-05 16:33 41.38130 28.62866 4973 ft 192 kts 274°
2026-05-05 16:34 41.38103 28.61112 5001 ft 192 kts 274°
2026-05-05 16:34 41.38079 28.59339 4987 ft 192 kts 274°
2026-05-05 16:34 41.38053 28.57521 5033 ft 208 kts 271°
2026-05-05 16:34 41.37535 28.55574 5261 ft 246 kts 233°
2026-05-05 16:35 41.36006 28.54282 5525 ft 280 kts 194°
2026-05-05 16:35 41.34029 28.54354 6148 ft 292 kts 167°
2026-05-05 16:35 41.32025 28.54848 6884 ft 299 kts 173°
2026-05-05 16:35 41.29925 28.55097 7657 ft 303 kts 177°
2026-05-05 16:36 41.27804 28.55215 8476 ft 307 kts 179°
2026-05-05 16:36 41.25683 28.55430 9215 ft 313 kts 164°
2026-05-05 16:36 41.23756 28.56727 9960 ft 311 kts 137°
2026-05-05 16:36 41.22142 28.58690 10509 ft 322 kts 131°
2026-05-05 16:37 41.20488 28.60869 10689 ft 346 kts 131°
2026-05-05 16:37 41.18725 28.63203 10917 ft 368 kts 132°
2026-05-05 16:37 41.16891 28.65587 11454 ft 377 kts 132°
2026-05-05 16:37 41.14993 28.68020 12205 ft 380 kts 133°
2026-05-05 16:38 41.13074 28.70472 12981 ft 381 kts 132°
2026-05-05 16:38 41.11397 28.73134 13668 ft 381 kts 120°
2026-05-05 16:38 41.09993 28.76125 14330 ft 383 kts 116°
2026-05-05 16:38 41.08853 28.79310 14966 ft 381 kts 105°
2026-05-05 16:39 41.08056 28.82668 15638 ft 383 kts 103°
2026-05-05 16:39 41.07305 28.86071 16267 ft 386 kts 103°
2026-05-05 16:39 41.06555 28.89511 16892 ft 390 kts 103°
2026-05-05 16:39 41.05792 28.92976 17520 ft 394 kts 103°
2026-05-05 16:40 41.05009 28.96476 18153 ft 397 kts 104°
2026-05-05 16:40 41.04210 28.99997 18724 ft 400 kts 105°
2026-05-05 16:40 41.03395 29.03548 19273 ft 403 kts 105°
2026-05-05 16:40 41.02582 29.07068 19815 ft 405 kts 105°
2026-05-05 16:41 41.01749 29.10656 20336 ft 408 kts 105°
2026-05-05 16:41 41.00908 29.14272 20871 ft 411 kts 105°
2026-05-05 16:41 41.00059 29.17909 21389 ft 414 kts 105°
2026-05-05 16:41 40.99207 29.21557 21903 ft 417 kts 105°
2026-05-05 16:42 40.98347 29.25231 22400 ft 420 kts 105°
2026-05-05 16:42 40.97479 29.28937 22896 ft 423 kts 106°
2026-05-05 16:42 40.96613 29.32624 23380 ft 425 kts 106°
2026-05-05 16:42 40.95731 29.36376 23827 ft 428 kts 106°
2026-05-05 16:43 40.94844 29.40145 23980 ft 430 kts 106°
2026-05-05 16:43 40.93953 29.43920 24011 ft 432 kts 106°
2026-05-05 16:43 40.93050 29.47742 24286 ft 435 kts 106°
2026-05-05 16:43 40.92146 29.51563 24827 ft 433 kts 106°
2026-05-05 16:44 40.91244 29.55365 25310 ft 433 kts 106°
2026-05-05 16:44 40.90348 29.59141 25640 ft 437 kts 106°
2026-05-05 16:44 40.89430 29.63004 25969 ft 440 kts 106°
2026-05-05 16:44 40.88507 29.66881 26339 ft 442 kts 106°
2026-05-05 16:45 40.87582 29.70755 26745 ft 443 kts 106°
2026-05-05 16:45 40.86653 29.74645 27110 ft 445 kts 106°
2026-05-05 16:45 40.85716 29.78557 27454 ft 447 kts 106°
2026-05-05 16:45 40.84774 29.82483 27783 ft 449 kts 106°
2026-05-05 16:46 40.83838 29.86383 28064 ft 452 kts 106°
2026-05-05 16:46 40.82868 29.90413 28329 ft 456 kts 106°
2026-05-05 16:46 40.81917 29.94361 28662 ft 458 kts 106°
2026-05-05 16:46 40.80948 29.98372 29011 ft 459 kts 106°
2026-05-05 16:47 40.79977 30.02388 29327 ft 460 kts 106°
2026-05-05 16:47 40.78997 30.06433 29623 ft 462 kts 106°
2026-05-05 16:47 40.78014 30.10482 30003 ft 462 kts 106°
2026-05-05 16:47 40.77042 30.14478 30372 ft 461 kts 106°
2026-05-05 16:48 40.76055 30.18528 30596 ft 463 kts 105°
2026-05-05 16:48 40.75063 30.22596 30865 ft 464 kts 105°
2026-05-05 16:48 40.74073 30.26647 31208 ft 463 kts 105°
2026-05-05 16:48 40.73084 30.30685 31548 ft 462 kts 105°
2026-05-05 16:49 40.72095 30.34720 31837 ft 462 kts 105°
2026-05-05 16:49 40.71117 30.38703 32104 ft 463 kts 105°
2026-05-05 16:49 40.70124 30.42736 32392 ft 463 kts 105°
2026-05-05 16:49 40.69124 30.46795 32583 ft 465 kts 105°
2026-05-05 16:50 40.68123 30.50851 32863 ft 465 kts 105°
2026-05-05 16:50 40.67119 30.54910 33220 ft 464 kts 105°
2026-05-05 16:50 40.66128 30.58908 33540 ft 463 kts 105°
2026-05-05 16:50 40.65127 30.62947 33805 ft 463 kts 105°
2026-05-05 16:51 40.64123 30.66991 34062 ft 464 kts 105°
2026-05-05 16:51 40.63118 30.71027 34321 ft 463 kts 105°
2026-05-05 16:51 40.62168 30.75075 34529 ft 463 kts 103°
2026-05-05 16:51 40.61303 30.79168 34683 ft 464 kts 102°
2026-05-05 16:52 40.60479 30.83221 34888 ft 464 kts 102°
2026-05-05 16:52 40.59645 30.87326 34997 ft 466 kts 102°
2026-05-05 16:52 40.57919 30.95632 35006 ft 468 kts 103°
2026-05-05 16:53 40.56176 31.03828 34988 ft 465 kts 103°
2026-05-05 16:53 40.54433 31.11977 34984 ft 463 kts 103°
2026-05-05 16:54 40.52690 31.20110 34979 ft 460 kts 103°
2026-05-05 16:54 40.50949 31.28200 34985 ft 460 kts 103°
2026-05-05 16:55 40.49199 31.36304 34980 ft 461 kts 103°
2026-05-05 16:55 40.47441 31.44431 35006 ft 464 kts 103°
2026-05-05 16:56 40.45665 31.52603 35043 ft 468 kts 103°
2026-05-05 16:56 40.43884 31.60774 35036 ft 466 kts 103°
2026-05-05 16:57 40.42097 31.68954 35033 ft 465 kts 103°
2026-05-05 16:57 40.40320 31.77059 35035 ft 463 kts 103°
2026-05-05 16:58 40.38531 31.85194 35046 ft 463 kts 103°
2026-05-05 16:58 40.36739 31.93315 35034 ft 463 kts 103°
2026-05-05 16:59 40.34911 32.01393 35018 ft 465 kts 104°
2026-05-05 16:59 40.33023 32.09531 35022 ft 466 kts 103°
2026-05-05 17:00 40.31339 32.17688 35026 ft 466 kts 101°
2026-05-05 17:00 40.29769 32.25951 35019 ft 468 kts 101°
2026-05-05 17:01 40.28167 32.34244 35029 ft 470 kts 101°
2026-05-05 17:01 40.26532 32.42522 35021 ft 473 kts 101°
2026-05-05 17:02 40.24861 32.50904 35013 ft 476 kts 101°
2026-05-05 17:02 40.23180 32.59301 35014 ft 477 kts 101°
2026-05-05 17:03 40.21496 32.67683 35010 ft 478 kts 101°
2026-05-05 17:03 40.19800 32.76093 35031 ft 477 kts 101°
2026-05-05 17:04 40.18100 32.84496 34998 ft 478 kts 101°
2026-05-05 17:04 40.16407 32.92832 34988 ft 477 kts 101°
2026-05-05 17:05 40.15040 33.01283 34995 ft 470 kts 91°
2026-05-05 17:05 40.14584 33.09789 35018 ft 468 kts 89°
2026-05-05 17:06 40.14177 33.18288 35002 ft 468 kts 89°
2026-05-05 17:06 40.13712 33.26754 34994 ft 468 kts 90°
2026-05-05 17:07 40.13203 33.35253 34998 ft 468 kts 90°
2026-05-05 17:07 40.12678 33.43753 34999 ft 468 kts 90°
2026-05-05 17:08 40.12151 33.52215 34983 ft 469 kts 90°
2026-05-05 17:08 40.11620 33.60669 34987 ft 469 kts 90°
2026-05-05 17:09 40.11079 33.69183 34979 ft 470 kts 90°
2026-05-05 17:09 40.10531 33.77718 34985 ft 471 kts 90°
2026-05-05 17:10 40.09979 33.86202 34987 ft 471 kts 91°
2026-05-05 17:10 40.09418 33.94737 34972 ft 471 kts 91°
2026-05-05 17:11 40.08850 34.03271 34980 ft 470 kts 91°
2026-05-05 17:11 40.08282 34.11717 34979 ft 469 kts 91°
2026-05-05 17:12 40.07706 34.20192 34977 ft 468 kts 91°
2026-05-05 17:12 40.07124 34.28661 34975 ft 467 kts 91°
2026-05-05 17:13 40.06537 34.37112 34981 ft 466 kts 92°
2026-05-05 17:13 40.05948 34.45502 34971 ft 466 kts 92°
2026-05-05 17:14 40.05352 34.53920 34989 ft 465 kts 92°
2026-05-05 17:14 40.04749 34.62337 34980 ft 465 kts 92°
2026-05-05 17:15 40.04142 34.70709 34977 ft 465 kts 92°
2026-05-05 17:15 40.03531 34.79058 34688 ft 455 kts 92°
2026-05-05 17:16 40.03230 34.83136 34100 ft 456 kts 92°
2026-05-05 17:16 40.02927 34.87241 33313 ft 460 kts 92°
2026-05-05 17:16 40.02718 34.90066 32874 ft 461 kts 92°
2026-05-05 17:16 40.02413 34.94153 32439 ft 456 kts 92°
2026-05-05 17:17 40.02105 34.98237 32086 ft 450 kts 92°
2026-05-05 17:17 40.01799 35.02285 31681 ft 445 kts 92°
2026-05-05 17:17 40.01496 35.06284 31251 ft 441 kts 92°
2026-05-05 17:17 40.01193 35.10267 30817 ft 437 kts 92°
2026-05-05 17:18 40.00894 35.14198 30410 ft 433 kts 92°
2026-05-05 17:18 40.00598 35.18052 30009 ft 429 kts 91°
2026-05-05 17:18 40.00301 35.21913 29550 ft 425 kts 92°
2026-05-05 17:18 40.00006 35.25742 29081 ft 420 kts 92°
2026-05-05 17:19 39.99713 35.29524 28601 ft 416 kts 92°
2026-05-05 17:19 39.99421 35.33265 28097 ft 414 kts 92°
2026-05-05 17:19 39.99121 35.36938 27597 ft 412 kts 94°
2026-05-05 17:19 39.98714 35.40630 27105 ft 410 kts 96°
2026-05-05 17:20 39.98248 35.44294 26640 ft 407 kts 97°
2026-05-05 17:20 39.97765 35.47945 26179 ft 405 kts 97°
2026-05-05 17:20 39.97295 35.51514 25720 ft 402 kts 97°
2026-05-05 17:20 39.96827 35.55108 25284 ft 400 kts 97°
2026-05-05 17:21 39.96369 35.58673 24830 ft 398 kts 97°
2026-05-05 17:21 39.95916 35.62228 24390 ft 395 kts 97°
2026-05-05 17:21 39.95468 35.65758 23983 ft 393 kts 97°
2026-05-05 17:22 39.94583 35.72713 23075 ft 388 kts 97°
2026-05-05 17:22 39.94140 35.76180 22621 ft 385 kts 97°
2026-05-05 17:22 39.93699 35.79622 22183 ft 382 kts 97°
2026-05-05 17:22 39.93268 35.82987 21749 ft 379 kts 97°
2026-05-05 17:23 39.92832 35.86378 21306 ft 377 kts 98°
2026-05-05 17:23 39.92400 35.89736 20899 ft 374 kts 99°
2026-05-05 17:23 39.91969 35.93067 20498 ft 371 kts 99°
2026-05-05 17:23 39.91537 35.96377 20074 ft 369 kts 99°
2026-05-05 17:24 39.91102 35.99673 19650 ft 367 kts 99°
2026-05-05 17:24 39.90670 36.02942 19247 ft 365 kts 99°
2026-05-05 17:24 39.90243 36.06165 18860 ft 363 kts 99°
2026-05-05 17:24 39.89814 36.09399 18477 ft 361 kts 99°
2026-05-05 17:25 39.89389 36.12599 18081 ft 358 kts 99°
2026-05-05 17:25 39.89101 36.14763 17779 ft 357 kts 99°
2026-05-05 17:25 39.88539 36.18984 17214 ft 354 kts 99°
2026-05-05 17:25 39.88119 36.22134 16842 ft 351 kts 99°
2026-05-05 17:26 39.87705 36.25220 16421 ft 349 kts 99°
2026-05-05 17:26 39.87283 36.28338 16011 ft 348 kts 100°
2026-05-05 17:26 39.86825 36.31419 15644 ft 344 kts 101°
2026-05-05 17:26 39.86349 36.34466 15292 ft 341 kts 103°
2026-05-05 17:27 39.85420 36.37240 14920 ft 339 kts 126°
2026-05-05 17:27 39.83944 36.39632 14579 ft 336 kts 130°
2026-05-05 17:27 39.82424 36.41942 14235 ft 334 kts 130°
2026-05-05 17:27 39.80913 36.44228 13901 ft 331 kts 130°
2026-05-05 17:28 39.79419 36.46505 13533 ft 329 kts 130°
2026-05-05 17:28 39.77960 36.48743 13155 ft 327 kts 130°
2026-05-05 17:28 39.76503 36.50990 12788 ft 325 kts 130°
2026-05-05 17:28 39.75052 36.53233 12426 ft 323 kts 129°
2026-05-05 17:29 39.73609 36.55466 12074 ft 321 kts 129°
2026-05-05 17:29 39.72181 36.57673 11718 ft 319 kts 129°
2026-05-05 17:29 39.70756 36.59872 11367 ft 317 kts 129°
2026-05-05 17:29 39.69335 36.62066 11038 ft 315 kts 129°
2026-05-05 17:30 39.67929 36.64236 10693 ft 313 kts 129°
2026-05-05 17:30 39.66529 36.66392 10360 ft 311 kts 129°
2026-05-05 17:30 39.65155 36.68507 10038 ft 310 kts 129°
2026-05-05 17:30 39.64028 36.70859 9674 ft 307 kts 108°
2026-05-05 17:31 39.63393 36.73506 9122 ft 311 kts 105°
2026-05-05 17:31 39.62772 36.76152 8840 ft 300 kts 104°
2026-05-05 17:31 39.62619 36.78771 8477 ft 287 kts 77°
2026-05-05 17:31 39.63334 36.81072 8340 ft 266 kts 53°
2026-05-05 17:32 39.64513 36.82770 8236 ft 244 kts 38°
2026-05-05 17:32 39.65943 36.83783 8095 ft 225 kts 20°
2026-05-05 17:32 39.67365 36.84444 7908 ft 211 kts 18°
2026-05-05 17:32 39.68721 36.85022 7667 ft 205 kts 17°
2026-05-05 17:33 39.70055 36.85581 7423 ft 201 kts 17°
2026-05-05 17:33 39.71376 36.86135 7161 ft 196 kts 17°
2026-05-05 17:33 39.72625 36.86661 6892 ft 180 kts 17°
2026-05-05 17:33 39.73728 36.87126 6672 ft 158 kts 17°
2026-05-05 17:34 39.74725 36.87545 6479 ft 151 kts 17°
2026-05-05 17:34 39.75745 36.87973 6272 ft 154 kts 17°
2026-05-05 17:34 39.76733 36.88389 6016 ft 144 kts 17°
2026-05-05 17:34 39.77669 36.88783 5826 ft 142 kts 17°
2026-05-05 17:35 39.78630 36.89187 5595 ft 147 kts 18°
2026-05-05 17:35 39.79613 36.89594 5364 ft 150 kts 17°
2026-05-05 17:35 39.80596 36.90014 5207 ft 132 kts 18°
2026-05-05 17:35 39.81256 36.90284 5198 ft 61 kts 18°
2026-05-05 17:36 39.81418 36.90383 5196 ft 8 kts 24°
2026-05-05 17:36 39.81437 36.90368 5194 ft 3 kts 251°
2026-05-05 17:36 39.81377 36.90327 5196 ft 18 kts 194°
2026-05-05 17:36 39.81220 36.90274 5196 ft 29 kts 196°
2026-05-05 17:37 39.81004 36.90185 5202 ft 33 kts 198°
2026-05-05 17:37 39.80849 36.90123 5205 ft 20 kts 196°
2026-05-05 17:37 39.80710 36.90066 5206 ft 22 kts 200°
2026-05-05 17:37 39.80559 36.89991 5207 ft 23 kts 198°
2026-05-05 17:38 39.80410 36.89937 5209 ft 22 kts 197°
2026-05-05 17:38 39.80264 36.89876 5213 ft 22 kts 198°
2026-05-05 17:38 39.80128 36.89815 5215 ft 16 kts 211°
2026-05-05 17:38 39.80103 36.89684 5216 ft 17 kts 283°
2026-05-05 17:39 39.80126 36.89572 5216 ft 10 kts 286°
2026-05-05 17:39 39.80147 36.89469 5215 ft 13 kts 284°
2026-05-05 17:39 39.80152 36.89441 5215 ft 0 kts 284°
2026-05-05 17:39 39.80152 36.89440 5215 ft 1 kts 284°